Cortez, CO

10:23 PM MST on January 19, 2018 (GMT -0700)
Cortez Municipal

Weather History for KCEZ - June, 2013

Change the Weather History Date:

Wednesday, June 12, 2013

  Actual Average Record
Temperature  
Mean Temperature 69 °F 63 °F  
Max Temperature 92 °F 84 °F 92 °F (2013)
Min Temperature 45 °F 43 °F 30 °F (2008)
Degree Days  
Heating Degree Days 0 3  
Month to date heating degree days 12 52  
Since 1 June heating degree days 12 52  
Since 1 July heating degree days 6406 6419  
Cooling Degree Days 4 1  
Month to date cooling degree days 31 12  
Year to date cooling degree days 31 17  
Since 1 June cooling degree days 31 12  
Growing Degree Days 18 (Base 50)    
Moisture  
Dew Point 24 °F    
Average Humidity 28    
Maximum Humidity 49    
Minimum Humidity 6    
Precipitation  
Precipitation 0.00 in 0.01 in 0.12 in (2007)
Month to date precipitation T 0.21  
Year to date precipitation 3.33 5.35  
Sea Level Pressure  
Sea Level Pressure 29.95 in    
Wind  
Wind Speed 6 mph (NNE)    
Max Wind Speed 21 mph    
Max Gust Speed 28 mph    
Visibility 10 miles    
Events      
T = Trace of Precipitation, MM = Missing Value Source: NWS Daily Summary

Daily Weather History Graph

Daily Weather History Graph

Search for Another Location

Airport or City:

Trip Planner

Search our weather history database for the weather conditions in past years. The results will help you decide how hot, cold, wet, or windy it might be!

Date:

Astronomy

Jun. 12, 2013 Rise Set
Actual Time 5:53 AM MDT 8:35 PM MDT
Civil Twilight 5:22 AM MDT 9:06 PM MDT
Nautical Twilight 4:43 AM MDT 9:45 PM MDT
Astronomical Twilight 4:00 AM MDT 10:28 PM MDT
Moon 9:32 AM MDT (6/12) 11:17 PM MDT (6/12)
Length of Visible Light 15h 44m
Length of Day
14h 42m
Waxing Crescent, 14% of the Moon is Illuminated
Jun 12
Waxing Crescent
Jun 16
First Quarter
Jun 23
Full
Jun 29
Last Quarter
Jul 8
New

Hourly Weather History & Observations

Time (MDT) Temp. Windchill Dew Point Humidity Pressure Visibility Wind Dir Wind Speed Gust Speed Precip Events Conditions
12:53 AM 55.0 °F - 25.0 °F 31% 29.93 in 10.0 mi NNE 6.9 mph - N/A   Clear
1:53 AM 55.0 °F - 25.0 °F 31% 29.92 in 10.0 mi ENE 4.6 mph - N/A   Clear
2:53 AM 50.0 °F - 28.0 °F 43% 29.94 in 10.0 mi Calm Calm - N/A   Clear
3:53 AM 51.1 °F - 27.0 °F 39% 29.93 in 10.0 mi Calm Calm - N/A   Clear
4:53 AM 50.0 °F - 28.9 °F 44% 29.94 in 10.0 mi NE 4.6 mph - N/A   Clear
5:53 AM 46.0 °F 43.9 °F 28.9 °F 51% 29.98 in 10.0 mi ENE 4.6 mph - N/A   Clear
6:53 AM 52.0 °F - 30.0 °F 43% 29.98 in 10.0 mi ENE 5.8 mph - N/A   Clear
7:53 AM 61.0 °F - 30.9 °F 32% 29.98 in 10.0 mi Calm Calm - N/A   Clear
8:53 AM 70.0 °F - 35.1 °F 28% 29.99 in 10.0 mi Calm Calm - N/A   Clear
9:53 AM 78.1 °F - 25.0 °F 14% 30.01 in 10.0 mi Variable 5.8 mph - N/A   Clear
10:53 AM 82.0 °F - 21.9 °F 11% 30.01 in 10.0 mi Variable 4.6 mph - N/A   Clear
11:53 AM 84.9 °F - 21.0 °F 10% 30.00 in 10.0 mi SSW 9.2 mph - N/A   Clear
12:53 PM 90.0 °F - 21.9 °F 8% 29.98 in 10.0 mi South 16.1 mph 20.7 mph N/A   Clear
1:53 PM 91.0 °F - 18.0 °F 7% 29.97 in 10.0 mi SSW 16.1 mph - N/A   Clear
2:53 PM 90.0 °F - 12.9 °F 6% 29.96 in 10.0 mi West 11.5 mph 21.9 mph N/A   Clear
3:53 PM 89.1 °F - 14.0 °F 6% 29.96 in 10.0 mi Variable 5.8 mph 23.0 mph N/A   Clear
4:53 PM 89.1 °F - 19.0 °F 8% 29.95 in 10.0 mi WSW 12.7 mph 18.4 mph N/A   Clear
5:53 PM 90.0 °F - 15.1 °F 6% 29.94 in 10.0 mi WNW 9.2 mph - N/A   Clear
6:53 PM 88.0 °F - 15.1 °F 7% 29.92 in 10.0 mi WNW 6.9 mph - N/A   Clear
7:53 PM 84.0 °F - 21.9 °F 10% 29.90 in 10.0 mi North 3.5 mph - N/A   Clear
8:53 PM 71.1 °F - 30.0 °F 22% 29.91 in 10.0 mi NNE 3.5 mph - N/A   Clear
9:53 PM 66.0 °F - 28.0 °F 24% 29.91 in 10.0 mi NE 8.1 mph - N/A   Clear
10:53 PM 59.0 °F - 30.9 °F 35% 29.92 in 10.0 mi East 3.5 mph - N/A   Clear
11:53 PM 57.9 °F - 30.0 °F 35% 29.92 in 10.0 mi Calm Calm - N/A   Clear